Home > Weather > Durango > Past weeks

Flag for USA Past Weather in Durango, Colorado, USA — Yesterday and Last 2 Weeks

Now
75 °F

Thunderstorms. Broken clouds.


Feels Like: 77 °F
Forecast: 57 / 79 °F
Wind: 5 mph from North

Location: Durango-La Plata County Airport

Current Time: Jul 30, 2016 at 7:52:20 PM

Latest Report: Jul 30, 2016 at 6:53 PM


Visibility: 10 mi

Pressure: 29.90 "Hg (23.78 "Hg at 1989m altitude)

Humidity: 34%

Dew Point: 45 °F

Location of DurangoLocation

Past Weather in Durango — Graph

°F

Durango Temperature Yesterday

Maximum temperature yesterday: 92 °F (at 1:53 PM)
Minimum temperature yesterday: 54 °F (at 4:53 AM)
Average temperature yesterday: 75 °F

High & Low Weather Summary for the Past Weeks

 TemperatureHumidityPressure
High93 °F (Jul 27, 3:53 PM)96% (Jul 19, 5:53 AM)30.35 "Hg (Jul 19, 5:53 AM)
Low48 °F (Jul 16, 4:53 AM)8% (Jul 15, 5:53 PM)29.80 "Hg (Jul 29, 5:53 PM)
Average73 °F40%30.00 "Hg
* Reported Jul 15 5:53 PM — Jul 30 5:53 PM, Durango, Weather by CustomWeather, © 2016

Note: Actual official high and low records may vary slightly from our data, if they occured in-between our weather recording intervals... More about our weather records

Advertising

Durango Weather History for the Previous 24 Hours

Scroll right to see more
 ConditionsComfort  
Time TempWeatherWind HumidityBarometerVisibility
5:53 PM
Sat, Jul 30
78 °FThundershowers. Scattered clouds.13 mph28%29.85 "Hg10 mi
4:53 PM82 °FSunny.15 mph26%29.83 "Hg10 mi
3:53 PM82 °FPartly sunny.16 mph27%29.84 "Hg10 mi
2:53 PM90 °FScattered clouds.N/A17%29.83 "Hg10 mi
1:53 PM88 °FSunny.N/A20%29.85 "Hg10 mi
12:53 PM85 °FSunny.3 mph22%29.87 "Hg10 mi
11:53 AM82 °FSunny.9 mph25%29.90 "Hg10 mi
10:53 AM78 °FSunny.6 mph29%29.93 "Hg10 mi
9:53 AM74 °FSunny.8 mph32%29.94 "Hg10 mi
8:53 AM71 °FSunny.7 mph36%29.94 "Hg10 mi
7:53 AM64 °FSunny.6 mph49%29.95 "Hg10 mi
6:53 AM57 °FClear.5 mph60%29.95 "Hg10 mi
5:53 AM59 °FClear.No wind56%29.92 "Hg10 mi
4:53 AM60 °FClear.10 mph53%29.90 "Hg10 mi
3:53 AM59 °FClear.No wind56%29.91 "Hg10 mi
2:53 AM62 °FClear.7 mph50%29.92 "Hg10 mi
1:53 AM65 °FClear.8 mph45%29.89 "Hg10 mi
12:53 AM69 °FClear.10 mph39%29.90 "Hg10 mi
11:53 PM
Fri, Jul 29
69 °FClear.12 mph41%29.92 "Hg10 mi
10:53 PM71 °FClear.9 mph36%29.90 "Hg10 mi
9:53 PM75 °FClear.8 mph31%29.87 "Hg10 mi
8:53 PM80 °FSunny.8 mph17%29.81 "Hg10 mi
7:53 PM84 °FSunny.6 mph17%29.80 "Hg10 mi
Weather by CustomWeather, © 2016

See weather overviewHow to use our weather pages